OBJECT P, 68429

Orbit data source: Space-Track

You're viewing an Uncataloged Satellite

Recently launched and/or uncataloged satellites may have evolving metadata. Metadata may include but not limited to: Owner, Maufacturer, Bus, Motor, and Mission.

OBJECT P, 68429 is a satellite in SSO that was launched on Mon, 30 Mar 2026 UTC via an FALCON 9 launch vehicle from the Air Force Western Test Range (AFWTR). Unknown objects in Earth's orbit typically refer to objects detected orbiting the Earth but have not yet been identified or cataloged. These objects could be anything from previously untracked satellites, spent rocket stages, debris from satellite collisions, or even natural meteoroids temporarily captured by Earth's gravity.

Loading next visibility...
Identifier
68429, 2026-067P
Orbit
SSO
Country
Flag of TBDTBD
Related business
None
Manufacturer
Unknown
Mission
Operational spacecraft
Bus & Motor
Unknown
Mass
Unknown
Launch date (UTC)
2026-03-30 (1 month ago)
Launch vehicle
FALCON 9
Launch site
Air Force Western Test Range (AFWTR)
Object type
Unknown
Shape & HBR
Unknown shape, 1.1 m
Radar Cross Section
RCS unknown

Expand to show TLE details & history
Last TLE update: 14 hours ago

TLE from 14 hours ago
0 OBJECT P
1 68429U 26067P   26127.13757172  .00010511  00000-0  51171-3 0  9997
2 68429  97.4495  86.2050 0003914 136.8909 223.2632 15.18550785  5711
Epoch: 2026-05-07T03:18Z
TLE epoch observation values (Epoch: 2026-05-07T03:18:06.196Z)
Latitude
-0.00006°
Longitude
171.69117°
Altitude
515.271 km
Speed
7.605 km/s
True Right ascension
05h 44m 49s
True Declination
0° 00' 00"
Sunlit
Object was in daylight at epoch
Visualization orbit readout
Latitude
Unknown
Longitude
Unknown
Altitude
Unknown
Speed
Unknown
Apparent Right ascension
Unknown
Apparent Declination
Unknown
Sunlit
N/A
Visualization observer readout
Local Sidereal Time
01:03:26
Azimuth
Unknown
Elevation
Unknown
Doppler factor
Unknown
Orbital elements
Apogee altitude
509.884 km
Perigee altitude
504.494 km
Semi-major axis
6,885.326 km
Eccentricity
0.00039
Inclination
97.4495°
RAAN
86.205°
Arg. of periapsis
136.8909°
True anomaly
223.23247°
Mean anomaly
223.2632°
Eccentric anomaly
223.24783°
Mean motion
3.79889 °/min
Orbital period
94.76 mins
BSTAR
0.00051171
Loading maneuver chart data...
Computing Atmospheric mass density...
Loading historical data...
Loading historical data...
Loading historical data...
Loading historical data...
Loading historical data...
Loading historical data...
Loading historical data...

Documentation

Showing up to 5 results
|